Location: Wanzleben
(52.0609°N, 11.4408°E)
Time: 10:03:11
(UTC+00:00)

Cosmos 2263 Rocket - Pass Details

Date: 17 January 2021
Orbit: 825 x 847 km, 71.0° (Epoch: 24 February)

Event Time Altitude Azimuth Distance (km) Brightness Sun altitude
Rises 18:05:35 0° 223° (SW) 3,400 6.1 -22.3°
Reaches altitude 10° 18:08:05 10° 228° (SW) 2,467 5.3 -22.7°
Maximum altitude 18:13:39 57° 307° (NW) 994 2.7 -23.6°
Enters shadow 18:17:02 24° 17° (NNE) 1,695 3.6 -24.1°
